Liberia, Costa Rica

3:23 AM CST on February 18, 2018 (GMT -0600)
Daniel Oduber Quiros International

Weather History for MRLB - June, 2013

Change the Weather History Date:

Tuesday, June 18, 2013

  Actual Average Record
Temperature  
Mean Temperature 79 °F -  
Max Temperature 84 °F 87 °F 94 °F (2015)
Min Temperature 74 °F 75 °F 71 °F (2006)
Cooling Degree Days 14    
Growing Degree Days 29 (Base 50)    
Moisture  
Dew Point 74 °F    
Average Humidity 79    
Maximum Humidity 94    
Minimum Humidity 68    
Precipitation  
Precipitation 0.01 in - - ()
Sea Level Pressure  
Sea Level Pressure 29.80 in    
Wind  
Wind Speed 3 mph ()    
Max Wind Speed 7 mph    
Max Gust Speed -    
Visibility 7.7 miles    
Events Rain    
Averages and records for this station are not official NWS values.
T = Trace of Precipitation, MM = Missing Value Source: Averaged Metar Reports

Daily Weather History Graph

Daily Weather History Graph

Search for Another Location

Airport or City:

Trip Planner

Search our weather history database for the weather conditions in past years. The results will help you decide how hot, cold, wet, or windy it might be!

Date:

Astronomy

Jun. 18, 2013 Rise Set
Actual Time 5:21 AM CST 6:05 PM CST
Civil Twilight 4:57 AM CST 6:28 PM CST
Nautical Twilight 4:30 AM CST 6:56 PM CST
Astronomical Twilight 4:03 AM CST 7:23 PM CST
Moon 1:27 PM CST 12:44 AM CST
Length of Visible Light 13h 30m
Length of Day
12h 44m
Waxing Gibbous, 71% of the Moon is Illuminated
Jun 18
Waxing Gibbous
Jun 23
Full
Jun 29
Last Quarter
Jul 8
New
Jul 15
First Quarter

Hourly Weather History & Observations

Time (CST) Temp. Heat Index Dew Point Humidity Pressure Visibility Wind Dir Wind Speed Gust Speed Precip Events Conditions
6:00 AM 78 °F - 75 °F 86% 29.82 in 12 mi SSW 3.5 mph - -   Overcast
6:00 AM 77.0 °F - 75.2 °F 94% 29.81 in 6.2 mi SSW 3.5 mph - N/A   Mostly Cloudy
7:00 AM 77.0 °F - 75.2 °F 94% 29.82 in 6.2 mi NE 4.6 mph - N/A   Mostly Cloudy
8:00 AM 80.6 °F 86.2 °F 75.2 °F 84% 29.83 in 6.2 mi East 3.5 mph - N/A   Mostly Cloudy
9:00 AM 84 °F - 76 °F 70% 29.83 in 12 mi South 3.5 mph - -   Overcast
9:00 AM 84.2 °F 92.3 °F 75.2 °F 74% 29.82 in 6.2 mi South 3.5 mph - N/A   Mostly Cloudy
10:00 AM 82.4 °F 89.5 °F 75.2 °F 79% 29.83 in 6.2 mi South 4.6 mph - N/A   Scattered Clouds
11:00 AM 80.6 °F 85.4 °F 73.4 °F 79% 29.81 in 6.2 mi ESE 3.5 mph - N/A   Drizzle
12:00 PM 82 °F - 73 °F 68% 29.83 in 12 mi SSE 2.3 mph - - Rain Light Rain
12:00 PM 80.6 °F 85.4 °F 73.4 °F 79% 29.81 in 6.2 mi SSE 2.3 mph - N/A Rain Light Rain
1:00 PM 82.4 °F 88.2 °F 73.4 °F 74% 29.79 in 6.2 mi NNE 3.5 mph - N/A   Overcast
2:00 PM 84.2 °F 90.9 °F 73.4 °F 70% 29.78 in 6.2 mi SE 3.5 mph - N/A   Mostly Cloudy
3:00 PM 82 °F - 73 °F 69% 29.78 in 12 mi South 6.9 mph - -   Overcast
3:00 PM 82.4 °F 88.2 °F 73.4 °F 74% 29.76 in 6.2 mi South 6.9 mph - N/A   Mostly Cloudy
4:00 PM 82.4 °F 88.2 °F 73.4 °F 74% 29.76 in 6.2 mi WSW 3.5 mph - N/A   Mostly Cloudy
5:00 PM 80.6 °F 85.4 °F 73.4 °F 79% 29.76 in 6.2 mi SSW 4.6 mph - N/A   Mostly Cloudy
6:00 PM 81 °F - 75 °F 76% 29.78 in 12 mi ESE 4.6 mph - -   Overcast
6:00 PM 80.6 °F 86.2 °F 75.2 °F 84% 29.77 in 6.2 mi ESE 4.6 mph - N/A   Mostly Cloudy
7:00 PM 78.8 °F - 73.4 °F 83% 29.81 in 6.2 mi East 4.6 mph - N/A   Mostly Cloudy
8:00 PM 77.0 °F - 73.4 °F 89% 29.82 in 6.2 mi SSE 4.6 mph - N/A Rain Light Rain